Satellite-Ground Cal/Val Region Overpasses Predictions

Prediction of Satellite NPP Overpassing Cal/Val Region: PacNW

Region Location: (Latitude: 10.00, Longitude: 139.50) to (Latitude: 22.70, Longitude: 165.60).

Table of predicted overpasses for the next 14.0 days since TLE Epoch: 6/13/2021
Interval Starting Time Starting Location Ending Time Ending Location
1 06/13/2021 03:10:47 ( 10.01, 151.96) 06/13/2021 03:14:23 ( 22.69, 148.94)
2 06/13/2021 15:42:41 ( 22.68, 149.19) 06/13/2021 15:46:16 ( 10.06, 146.19)
3 06/14/2021 02:51:46 ( 10.04, 156.71) 06/14/2021 02:55:21 ( 22.66, 153.70)
4 06/14/2021 15:23:40 ( 22.65, 153.94) 06/14/2021 15:27:15 ( 10.03, 150.94)
5 06/15/2021 02:32:45 ( 10.01, 161.47) 06/15/2021 02:36:21 ( 22.69, 158.45)
6 06/15/2021 15:04:39 ( 22.68, 158.70) 06/15/2021 15:08:14 ( 10.06, 155.70)
7 06/16/2021 02:14:31 ( 12.75, 165.59) 06/16/2021 02:17:20 ( 22.67, 163.21)
8 06/16/2021 03:55:14 ( 10.05, 140.84) 06/16/2021 03:56:52 ( 15.80, 139.50)
9 06/16/2021 14:45:38 ( 22.65, 163.45) 06/16/2021 14:49:13 ( 10.03, 160.45)
10 06/17/2021 03:36:13 ( 10.02, 145.60) 06/17/2021 03:39:49 ( 22.70, 142.58)
11 06/17/2021 14:29:43 ( 11.76, 165.60) 06/17/2021 14:30:12 ( 10.06, 165.21)
12 06/17/2021 16:08:07 ( 22.67, 142.84) 06/17/2021 16:11:42 ( 10.05, 139.83)
13 06/18/2021 03:17:13 ( 10.05, 150.35) 06/18/2021 03:20:48 ( 22.67, 147.35)
14 06/18/2021 15:49:05 ( 22.70, 147.60) 06/18/2021 15:52:41 ( 10.02, 144.58)
15 06/19/2021 02:58:11 ( 10.02, 155.11) 06/19/2021 03:01:46 ( 22.65, 152.11)
16 06/19/2021 15:30:05 ( 22.67, 152.35) 06/19/2021 15:33:40 ( 10.05, 149.34)
17 06/20/2021 02:39:11 ( 10.06, 159.86) 06/20/2021 02:42:46 ( 22.68, 156.85)
18 06/20/2021 15:11:03 ( 22.69, 157.11) 06/20/2021 15:14:39 ( 10.02, 154.09)
19 06/21/2021 02:20:09 ( 10.03, 164.62) 06/21/2021 02:23:44 ( 22.65, 161.62)
20 06/21/2021 14:52:03 ( 22.66, 161.86) 06/21/2021 14:55:38 ( 10.04, 158.85)
21 06/22/2021 03:42:38 ( 10.01, 144.01) 06/22/2021 03:46:14 ( 22.69, 140.99)
22 06/22/2021 14:34:12 ( 18.52, 165.59) 06/22/2021 14:36:37 ( 10.01, 163.60)
23 06/22/2021 16:14:31 ( 22.68, 141.24) 06/22/2021 16:16:33 ( 15.53, 139.50)
24 06/23/2021 03:23:37 ( 10.04, 148.75) 06/23/2021 03:27:12 ( 22.67, 145.75)
25 06/23/2021 15:55:31 ( 22.65, 145.99) 06/23/2021 15:59:06 ( 10.03, 142.98)
26 06/24/2021 03:04:36 ( 10.02, 153.51) 06/24/2021 03:08:11 ( 22.64, 150.51)
27 06/24/2021 15:36:29 ( 22.67, 150.75) 06/24/2021 15:40:04 ( 10.06, 147.74)
28 06/25/2021 02:45:35 ( 10.05, 158.26) 06/25/2021 02:49:10 ( 22.68, 155.26)
29 06/25/2021 15:17:28 ( 22.70, 155.51) 06/25/2021 15:21:04 ( 10.02, 152.49)
30 06/26/2021 02:26:34 ( 10.03, 163.02) 06/26/2021 02:30:09 ( 22.65, 160.02)
